RH
44 84 60 86 71 34 18 12 16 66 66 25 10 14 21 19 16 13 11 10 10 9 9 9 9 9 9 9 9 10 12 20 24 21 14 9 6 4 5 4 4 5 8 13 22
39 46 36 43 31 18 12 12 43 69 61 14 11 14 16 15 12 10 10 10 10 9 9 9 9 9 9 10 16 23 22 14 8 6 4 4 4 4 5 6 7 8 8 8 8
26 25 25 25 16 12 14 36 68 66 45 12 11 11 12 10 8 8 9 9 9 9 9 9 8 11 19 25 19 10 6 5 5 5 5 6 8 7 6 8 7 7 8 9 10
24 23 21 18 16 20 45 75 72 60 24 13 13 10 8 7 7 7 8 8 8 8 8 15 25 28 24 13 6 5 5 5 6 9 9 9 8 6 7 10 10 4 2 3 4
21 21 20 24 31 59 81 78 66 46 27 24 24 23 21 16 12 10 9 11 14 19 26 30 26 12 6 5 5 6 7 9 11 11 12 12 12 8 8 11 14 14 9 6 7
35 40 56 72 81 85 76 66 56 48 43 39 35 31 28 26 26 25 28 29 30 31 31 16 6 6 5 6 8 9 11 12 13 13 15 14 14 12 10 12 14 16 20 13 11
60 68 78 81 88 83 75 63 56 52 48 42 38 36 36 35 34 35 35 34 28 14 6 6 6 6 8 10 11 13 13 14 14 15 16 17 16 15 13 10 12 18 26 17 13
54 55 62 67 68 65 63 59 55 50 46 44 42 41 41 40 38 33 19 8 6 6 6 6 7 8 10 12 14 13 14 16 16 17 18 20 19 18 13 13 16 21 31 23 15
24 37 34 39 50 51 51 50 49 48 47 43 41 32 22 15 7 6 7 7 6 6 7 8 10 12 12 14 13 15 15 16 17 18 20 21 23 21 12 13 12 17 34 28 18
7 6 7 7 7 7 8 9 8 7 7 7 7 6 7 8 8 7 7 7 8 8 9 10 12 13 14 14 15 15 17 18 19 20 22 23 25 25 17 12 8 12 18 31 22
9 9 8 8 8 8 8 8 7 8 7 7 8 8 9 9 9 8 8 9 10 10 12 13 13 14 14 14 14 16 17 18 21 21 23 25 27 28 24 15 11 6 10 24 28
15 11 10 9 9 9 9 8 9 8 8 8 8 8 8 8 9 9 10 10 12 12 13 13 14 14 14 15 16 18 20 20 21 24 25 25 30 31 31 23 16 8 7 10 34
58 47 31 21 14 12 11 9 10 10 10 10 10 10 10 10 11 10 12 13 14 15 15 15 15 17 18 19 19 20 21 24 26 28 32 33 33 35 34 31 20 10 6 7 13
5 40 62 61 52 41 35 28 20 17 19 22 21 21 26 21 23 20 17 18 17 17 18 18 20 20 20 22 23 26 29 33 34 35 36 37 40 44 42 39 30 15 7 7 7
2 2 6 44 61 64 62 58 52 48 51 39 33 34 39 32 27 25 22 19 21 20 21 23 22 24 24 25 27 30 33 38 43 46 44 44 43 44 50 50 45 34 11 7 6
3 3 3 2 2 5 15 41 57 57 56 58 53 55 50 48 45 36 34 29 28 29 29 28 28 29 31 32 36 40 45 52 50 49 52 57 52 50 56 59 56 49 26 9 7
4 4 4 3 3 2 2 2 3 4 20 31 41 48 53 51 49 46 44 46 48 48 49 49 48 44 46 51 56 56 55 55 54 55 57 66 65 63 66 65 73 64 49 31 19
6 5 4 4 4 3 3 3 3 3 2 2 2 3 3 5 6 4 3 2 4 8 11 18 30 41 41 33 41 47 43 33 41 42 42 63 70 64 72 75 72 87 72 50 43
24 15 8 5 4 4 4 4 4 4 3 3 3 3 3 3 2 2 2 2 3 3 3 3 3 3 3 3 3 4 4 9 14 27 12 28 52 52 61 69 70 82 84 69 54
33 29 22 17 14 11 7 4 4 4 4 4 4 4 4 3 3 3 3 3 4 4 5 5 5 7 9 8 8 8 7 8 9 10 9 10 23 56 38 49 58 69 81 85 74
39 38 35 27 23 17 14 10 7 5 4 4 4 4 4 4 4 4 4 4 4 6 6 8 7 9 12 12 12 13 15 15 16 19 16 10 10 50 38 50 46 64 71 80 86
35 38 32 35 37 34 28 22 14 10 8 7 7 6 6 6 6 6 7 8 9 12 14 14 14 13 14 15 15 17 18 21 21 22 17 25 9 35 55 50 40 51 73 75 81
38 37 38 41 36 29 31 32 28 25 22 19 17 16 16 16 17 17 20 22 22 20 19 17 15 14 14 15 15 17 22 28 28 25 26 39 24 41 52 51 38 37 60 61 71
49 49 44 41 44 43 38 36 38 38 40 43 42 38 32 34 35 35 29 20 26 24 30 28 28 30 27 31 32 34 35 31 32 29 27 25 30 44 62 58 51 50 48 53 60
59 57 53 51 50 52 51 54 53 50 53 54 51 52 49 44 41 42 39 39 39 41 40 38 35 41 43 46 44 39 33 19 20 21 23 24 25 27 28 32 43 50 52 57 55
54 68 66 64 66 66 61 61 58 58 57 55 54 52 55 53 53 53 54 54 49 47 48 48 44 45 42 42 39 36 35 31 28 26 25 22 14 14 17 20 22 24 31 47 47
52 55 59 60 56 59 63 64 58 57 55 56 52 54 56 53 55 60 59 63 64 59 57 52 49 46 41 40 38 35 31 30 28 26 22 18 14 13 14 11 10 10 14 20 23
Wind_Speed
41 38 41 40 49 49 46 45 45 48 45 46 45 42 40 38 34 32 29 26 23 20 18 18 17 18 22 24 25 28 30 30 33 34 36 39 41 45 49 51 51 59 61 61 65
38 36 36 48 53 51 46 45 47 46 45 45 43 41 38 35 32 30 26 24 21 20 19 19 21 21 22 23 25 26 26 27 30 32 34 38 41 42 42 46 50 53 52 54 54
43 42 41 47 46 45 44 47 46 44 43 42 41 37 33 32 30 28 26 24 21 20 21 19 19 18 18 20 21 22 25 25 26 27 29 30 33 36 41 43 50 52 53 56 59
38 40 44 43 43 44 45 45 42 41 41 39 35 32 29 29 28 26 24 23 20 18 17 14 14 15 16 18 20 21 21 20 19 23 29 33 36 37 40 43 46 45 45 44 46
36 35 37 42 43 43 42 39 38 38 37 34 32 30 28 26 24 23 20 16 12 12 11 11 11 14 15 16 16 13 16 20 24 28 31 34 40 40 38 41 44 45 45 45 48
41 40 38 38 40 41 38 37 36 35 34 31 28 25 25 23 18 15 11 9 9 9 9 10 11 12 12 8 12 16 20 24 28 30 33 37 43 45 42 40 41 45 48 48 52
41 37 35 34 32 31 30 31 31 29 26 24 22 20 17 15 10 10 8 8 8 9 8 9 10 4 8 12 15 18 21 24 27 30 32 34 42 45 48 48 46 46 50 55 59
41 37 34 31 28 26 23 21 20 19 19 17 16 15 14 12 10 9 9 9 8 6 7 3 4 7 11 14 17 19 22 22 24 29 33 35 40 45 48 49 49 49 52 59 62
38 36 35 32 28 26 24 22 20 18 17 16 14 14 13 13 11 10 8 5 3 2 1 3 7 10 13 15 15 18 19 23 27 30 34 37 40 44 48 49 50 52 53 59 61
30 31 31 30 28 27 24 22 20 19 18 15 14 12 11 9 8 6 5 4 1 2 5 7 10 13 15 17 20 21 23 28 31 33 38 38 41 44 47 50 51 52 56 59 63
22 21 21 21 20 18 17 15 14 12 10 10 9 10 7 6 6 4 3 0 3 5 7 10 13 15 17 20 22 25 28 30 33 35 36 38 41 42 43 46 51 53 55 58 60
22 19 17 15 14 14 14 13 12 11 11 10 9 8 7 5 4 2 2 3 6 9 12 14 16 18 21 23 26 28 30 32 33 36 37 39 40 43 44 44 49 51 52 54 57
21 19 17 15 13 11 9 8 7 7 7 7 6 4 3 0 1 3 5 8 10 12 13 16 19 22 25 27 29 31 33 34 35 35 37 40 40 42 44 45 47 48 46 51 52
22 19 16 13 12 10 9 7 5 3 3 4 2 3 5 6 7 9 10 12 15 17 19 22 25 27 29 30 31 32 33 35 36 36 38 40 39 41 41 43 44 45 44 47 48
18 18 17 15 13 11 9 9 8 7 8 8 8 9 11 12 14 15 18 20 21 24 26 28 31 32 33 34 36 38 40 40 40 39 38 41 41 42 41 41 41 41 41 40 43
13 13 14 14 14 13 12 10 9 9 10 11 12 14 16 17 19 20 22 23 26 28 30 31 33 34 36 38 40 42 43 43 42 42 41 41 42 42 39 41 39 39 36 36 37
13 14 14 13 12 12 13 13 13 14 13 14 16 18 20 21 23 24 25 27 29 30 31 32 35 37 38 40 40 41 43 44 45 45 43 40 39 41 39 38 39 36 36 34 34
18 17 16 17 16 16 15 15 17 17 17 18 18 19 21 21 23 25 25 25 27 28 29 31 32 35 35 37 38 40 41 42 44 43 42 41 38 38 41 39 36 32 33 34 33
24 23 21 20 20 21 21 21 20 21 22 22 24 25 24 27 28 29 29 31 30 31 32 34 33 34 36 38 40 40 42 42 42 43 45 42 40 36 39 38 35 34 30 29 31
22 24 28 26 24 24 25 27 28 28 28 28 29 29 31 31 32 33 34 34 35 36 37 38 38 37 38 38 40 41 41 42 43 45 47 44 42 35 40 40 35 29 31 27 25
24 24 24 28 30 29 29 29 30 32 33 34 35 35 36 36 36 38 39 40 39 40 41 42 42 41 42 41 42 40 40 41 42 44 46 47 43 37 39 41 39 31 28 26 29
29 28 29 28 28 29 31 33 33 33 34 34 36 37 38 39 40 41 42 43 43 43 43 43 47 46 44 45 45 43 41 42 44 43 45 47 47 36 38 41 41 31 31 31 31
33 31 32 33 33 32 31 33 35 36 38 40 41 40 41 42 45 45 46 47 48 50 50 50 52 51 48 46 48 45 37 37 43 43 40 46 44 40 41 41 45 37 35 36 35
37 36 36 38 38 39 38 37 38 38 39 40 44 46 48 47 48 49 50 52 47 48 46 48 44 42 43 40 43 44 41 41 50 48 49 43 44 37 43 43 43 43 40 39 37
43 43 41 43 40 42 42 43 44 45 43 45 47 48 50 50 50 49 47 47 44 41 39 42 40 39 37 39 41 41 39 40 42 48 54 46 50 48 47 48 45 44 43 43 41
48 47 47 47 46 47 46 45 45 47 47 47 48 51 49 50 52 48 49 47 43 42 42 42 44 44 41 41 45 47 43 46 47 50 54 54 48 50 46 47 48 50 50 50 49
46 47 50 51 51 48 47 48 49 48 48 49 51 51 50 51 49 51 50 44 45 46 48 48 48 50 48 48 50 48 50 51 52 50 53 56 54 54 54 52 51 48 52 55 52
Wind_Direction
105 111 94 122 133 134 136 136 141 149 156 163 169 166 169 174 174 178 181 184 194 206 215 229 237 244 250 259 271 281 291 297 299 301 300 299 295 295 294 293 294 286 282 283 277
107 113 107 120 130 130 131 134 142 147 156 163 167 167 172 176 176 178 183 193 201 213 222 232 241 254 266 279 291 296 300 300 302 302 305 307 308 307 308 310 303 298 293 289 286
106 108 117 120 122 122 128 135 142 148 156 164 167 170 174 175 179 182 188 200 210 222 232 244 259 276 288 294 296 300 298 305 308 315 320 325 325 324 323 322 314 301 293 288 283
103 113 115 116 118 122 128 134 142 149 158 164 163 168 172 177 184 189 197 207 218 233 249 268 281 286 289 291 296 302 312 321 335 335 334 337 328 329 329 332 334 323 312 305 295
94 107 109 114 118 123 128 135 142 149 155 159 162 170 176 183 188 195 205 217 232 249 258 265 275 284 289 298 311 326 339 340 339 338 336 333 328 335 332 335 335 337 330 320 311
82 90 98 107 117 125 130 135 142 148 156 160 165 171 180 183 188 195 208 222 232 238 253 259 274 295 308 326 343 346 341 341 337 336 336 335 332 334 336 337 338 341 337 329 320
70 77 88 100 109 118 125 133 140 147 153 159 165 174 175 170 169 175 189 208 215 226 245 279 302 321 347 347 346 342 338 335 329 328 334 333 330 334 337 339 343 345 343 338 334
83 80 82 86 91 100 106 115 125 135 145 150 158 161 155 154 152 166 185 198 218 265 285 276 320 343 340 339 339 335 332 321 323 330 332 333 330 334 336 339 342 346 348 347 345
81 84 87 86 89 94 101 108 115 122 129 133 136 132 136 157 155 178 197 234 253 200 297 335 336 335 331 337 331 320 312 319 321 322 324 328 333 335 336 338 342 345 351 354 353
81 86 90 92 96 99 99 102 108 112 118 125 133 140 159 168 189 189 161 148 148 325 332 332 327 330 330 326 314 312 315 315 317 319 320 326 331 335 335 339 342 347 352 359 360
77 82 90 96 99 103 108 113 117 122 122 129 141 149 147 145 144 143 143 188 304 323 317 327 328 320 314 309 307 310 314 316 315 317 323 324 329 332 332 337 345 350 355 1 5
71 75 81 91 101 108 113 117 119 124 133 140 146 140 135 133 146 156 238 303 315 319 323 318 315 309 305 304 306 309 311 309 313 315 321 323 327 329 332 340 343 351 356 3 8
65 69 72 76 81 92 102 117 124 127 133 125 126 121 138 143 308 296 299 304 310 308 304 302 300 298 300 302 304 305 307 310 313 315 319 320 322 330 333 338 343 347 356 2 9
48 51 56 63 64 69 71 76 85 89 53 44 15 347 339 319 321 310 306 302 299 297 297 299 299 299 299 301 302 304 307 310 311 313 316 318 322 326 330 336 340 343 353 359 5
27 30 35 36 37 39 34 30 22 3 358 345 334 328 327 325 316 310 307 304 303 303 302 301 303 304 304 304 304 306 307 310 313 314 313 314 314 323 329 333 335 341 346 354 1
2 5 9 10 11 12 12 8 356 345 342 331 326 322 320 314 312 307 305 300 299 300 300 300 301 302 302 303 304 305 308 310 307 308 311 314 315 319 326 327 333 336 340 345 350
331 331 333 335 339 340 343 345 342 338 327 323 321 316 310 308 306 303 301 302 302 302 300 299 299 298 299 301 303 304 305 308 310 312 314 316 316 316 320 323 326 332 334 337 340
319 315 311 312 313 315 315 316 316 317 317 315 314 311 308 304 301 300 298 299 299 299 299 299 301 300 303 304 305 307 309 311 312 313 316 317 318 318 316 317 319 324 325 326 333
318 313 305 301 300 300 302 299 299 299 302 302 304 302 302 303 302 300 300 303 303 303 303 302 303 302 303 305 306 306 307 308 309 309 310 314 318 325 317 319 319 321 321 320 322
311 303 300 300 299 297 294 292 292 293 294 293 294 295 297 298 297 296 297 298 300 301 302 303 303 304 304 304 304 305 306 306 308 306 308 310 313 321 314 314 316 319 313 312 313
297 301 300 295 296 295 294 292 289 288 288 291 292 293 293 294 295 295 295 296 297 298 298 299 297 300 301 302 301 301 302 303 302 303 302 304 307 311 309 305 310 319 310 306 305
288 290 294 293 294 294 293 296 294 292 291 291 291 292 292 293 293 292 293 294 295 296 296 297 297 299 298 301 300 302 303 301 299 301 301 304 304 308 300 297 298 302 304 301 298
287 285 289 290 292 289 289 289 291 292 294 294 293 292 292 292 293 293 295 297 300 300 299 298 297 297 297 298 298 300 303 302 298 296 299 293 306 300 296 293 294 300 298 296 295
281 281 283 285 288 288 288 287 289 289 290 291 292 292 291 292 292 295 296 295 298 297 298 296 296 296 299 298 298 301 306 308 303 305 299 303 297 298 293 292 293 294 293 291 290
286 283 287 287 285 286 286 288 288 288 288 289 291 291 290 291 290 293 295 295 296 294 291 291 293 292 294 293 291 292 301 300 300 303 299 304 299 294 293 292 292 293 295 292 290
286 286 287 289 289 287 286 285 286 287 286 287 289 289 290 291 289 293 290 292 292 291 292 289 291 289 290 290 288 290 295 292 295 299 297 296 297 296 295 294 294 294 292 286 284
281 282 284 286 285 284 284 285 287 286 287 291 295 294 291 290 291 287 288 287 284 285 285 285 285 285 285 288 286 289 287 292 293 295 293 295 297 294 292 296 297 299 291 287 289